STARLINK-1009 (44715 NORAD) Tracking and Keplerian Element Data

This shows tracking and keplerian element data for the satellite.

Feedback or suggestion? Click here.




ElementValue
Catalog44715
NameSTARLINK-1009
Epoch Orbit1061
Epoch Day17.91667824
Epoch Year2020
RAAN195.8564
Inclination53.0069
Eccentricity0.0002894
Argument of Perigee14.2729
Mean Anonmoly288.4454
Mean Motion15.73194725
Decay Rate0.00116874
L11 44715U 19074C 20017.91667824 .00116874 00000-0 82552-3 0 9997
L22 44715 53.0069 195.8564 0002894 14.2729 288.4454 15.73194725 10619

Live tracking and technical data element details for STARLINK-1009 (NORAD 44715). STARLINK-1009 can be tracked NOW for your location showing map with azimuth and elevation plus other details from your city location.

Track the satellite on the map from your city or location and see movement details for azimuth, elevation, latitude, longitude, range, height, and movement on the map or in text.







IsCatalogInMostPopularTable: catalog: 44715, numindb: 10
Update: records affected: 1



GetName: 44715 STARLINK-1009

Hit Count: updated at: Mon, 20 Jan 2020 03:02:15 GMT